Weather in Hakone

Japan     35°12′52″N   139°04′05″E
temp.,
°C
wind,
m/s
gust,
m/s
humid.,
%
clouds,
%
prec.,
mm/h
press.,
hPa
HPBL,
m
26 february, fri
fri2600:00+5wnw1283100 0.1 102355
03:00+4w1174100 0.1 102137
06:00+4w115999 0.0 102254
09:00+7nnw1245100 0.0 1021263
12:00+8se2156100 0.2 1020803
15:00+7ene2470100 0.6 1018577
18:00+6ene2362100 0.1 1021363
21:00+5ene3556100 0.1 1020366
27 february, sat
sat2700:00+4ne2355100 0.0 1020232
03:00+3ne1156100 0.0 1020140
06:00+3sse1259100 0.0 1023156
09:00+4ese2252100 0.0 1025534
12:00+6e3338100 0.0 1026905
15:00+6e343375 0.0 1025994
18:00+4ene343664 0.0 1029498
21:00+2ene344368 0.0 1033367
28 february, sun
sun2800:000ne234613 0.0 1034232
03:000ne22487 0.0 1034205
06:000ne11480 0.0 1035139
09:00+4ese11432 0.0 1036527
12:00+7se213832 0.0 1034753
15:00+8se224332 0.0 1033715
18:00+4sse12680 0.0 1034235
21:00+4w12730 0.0 1035144
1 march, mon
mon100:00+3wnw12721 0.0 103443
03:00+4wnw127322 0.0 103258
06:00+4wnw227978 0.0 103124
09:00+9sw246550 0.0 1031511
12:00+11sw465999 0.0 10281024
15:00+12sw465797 0.0 10261116
18:00+9wsw2470100 0.0 1026355
21:00+9wsw2278100 0.0 102597
2 march, tue
tue200:00+8wsw228484 0.0 102272
03:00+9wsw229591 0.3 1019100
06:00+9wsw2398100 1.2 1017117
09:00+10sw3899100 2.4 1015459
12:00+11ssw2699100 6.0 1008341
15:00+13sw61499100 27.2 1004931
18:00+14sw81694100 4.1 10051148
21:00+11se229592 4.5 1008119